This is the latest recevied weather packets stored in our database for station/object AC0YE. If no packets are shown the sender has not sent any weather packets the latest 10 day(s).
| Time | Temp. | Humidity | Pressure | Rain* | Wind** | Luminosity | Snow |
|---|---|---|---|---|---|---|---|
| 1777812317 | 11.11° C | 62% | 1011.5 hPa | 0 mm | - | - | - |
| 1777812017 | 11.11° C | 63% | 1011.1 hPa | 0 mm | - | - | - |
| 1777811737 | 11.11° C | 64% | 1011.9 hPa | 0 mm | - | - | - |
| 1777809317 | 11.11° C | 63% | 1012.6 hPa | 0 mm | - | - | - |
| 1777807816 | 11.11° C | 59% | 1012.7 hPa | 0 mm | - | - | - |
| 1777800316 | 11.11° C | 55% | 1014.1 hPa | 0 mm | - | - | - |
| 1777799716 | 11.67° C | 54% | 1014.4 hPa | 0 mm | - | - | - |
| 1777799416 | 11.67° C | 55% | 1014.6 hPa | 0 mm | - | - | - |
| 1777797316 | 12.22° C | 52% | 1014.1 hPa | 0 mm | - | - | - |
| 1777795216 | 12.22° C | 52% | 1014.5 hPa | 0 mm | - | - | - |
| 1777794316 | 11.67° C | 52% | 1014.4 hPa | 0 mm | - | - | - |
| 1777792216 | 11.67° C | 52% | 1014.2 hPa | 0 mm | - | - | - |
| 1777791316 | 11.67° C | 51% | 1014.3 hPa | 0 mm | - | - | - |
| 1777789816 | 11.67° C | 51% | 1014.4 hPa | 0 mm | - | - | - |
| 1777789516 | 11.67° C | 50% | 1014.6 hPa | 0 mm | - | - | - |
| 1777788016 | 11.67° C | 49% | 1014.8 hPa | 0 mm | - | - | - |
| 1777786816 | 11.67° C | 48% | 1014.8 hPa | 0 mm | - | - | - |
| 1777785916 | 11.67° C | 48% | 1015.1 hPa | 0 mm | - | - | - |
| 1777785616 | 11.67° C | 48% | 1015.2 hPa | 0 mm | - | - | - |
| 1777784416 | 11.67° C | 48% | 1015.3 hPa | 0 mm | - | - | - |
| 1777777216 | 11.67° C | 47% | 1016.4 hPa | 0 mm | - | - | - |
| 1777773936 | 12.22° C | 44% | 1016.2 hPa | 0 mm | - | - | - |
| 1777771816 | 12.78° C | 41% | 1016 hPa | 0 mm | - | - | - |
| 1777770916 | 13.33° C | 39% | 1016.1 hPa | 0 mm | - | - | - |
| 1777769416 | 14.44° C | 37% | 1016 hPa | 0 mm | - | - | - |
* Rain latest hour (hover to see other rain measurements)
** Current wind speed in m/s (hover to see current wind gust speed)